Litchfield, IL

7:59 AM CDT on August 23, 2017 (GMT -0500)
Litchfield

Weather History for K3LF - January, 2013

Change the Weather History Date:

Thursday, January 31, 2013

  Actual Average (KALN) Record (KALN)
Temperature  
Mean Temperature 18 °F -  
Max Temperature 28 °F 39 °F 64 °F (2016)
Min Temperature 9 °F 24 °F -2 °F (2004)
Degree Days  
Heating Degree Days 46    
Moisture  
Dew Point 13 °F    
Average Humidity 68    
Maximum Humidity 86    
Minimum Humidity 57    
Precipitation  
Precipitation 0.00 in - - ()
Sea Level Pressure  
Sea Level Pressure 30.03 in    
Wind  
Wind Speed 18 mph (West)    
Max Wind Speed 26 mph    
Max Gust Speed 34 mph    
Visibility 10 miles    
Events Snow    
Averages and records for this station are not official NWS values.
T = Trace of Precipitation, MM = Missing Value Source: NWS Daily Summary

Daily Weather History Graph

Daily Weather History Graph

Search for Another Location

Airport or City:

Trip Planner

Search our weather history database for the weather conditions in past years. The results will help you decide how hot, cold, wet, or windy it might be!

Date:

Astronomy

Jan. 31, 2013 Rise Set
Actual Time 7:06 AM CST 5:18 PM CST
Civil Twilight 6:37 AM CST 5:47 PM CST
Nautical Twilight 6:05 AM CST 6:19 PM CST
Astronomical Twilight 5:34 AM CST 6:50 PM CST
Moon 10:18 PM CST (1/31) 9:08 AM CST (1/31)
Length of Visible Light 11h 09m
Length of Day
10h 12m
Waning Gibbous, 79% of the Moon is Illuminated
Jan 31
Waning Gibbous
Feb 3
Last Quarter
Feb 10
New
Feb 17
First Quarter
Feb 25
Full

Hourly Weather History & Observations

Time (CST) Temp. Windchill Dew Point Humidity Pressure Visibility Wind Dir Wind Speed Gust Speed Precip Events Conditions
12:15 AM 25.5 °F 10.6 °F 18.9 °F 76% 29.87 in 7.0 mi WNW 23.0 mph 28.8 mph N/A Snow Light Snow
12:55 AM 25.0 °F 11.7 °F 16.9 °F 71% 29.89 in 10.0 mi WNW 17.3 mph 31.1 mph N/A   Overcast
1:15 AM 24.6 °F 11.3 °F 16.9 °F 72% 29.88 in 10.0 mi WNW 17.3 mph - N/A   Overcast
1:35 AM 25.2 °F 12.9 °F 16.0 °F 68% 29.89 in 10.0 mi WNW 15.0 mph - N/A   Overcast
1:55 AM 25.2 °F 13.9 °F 15.6 °F 67% 29.90 in 10.0 mi WNW 12.7 mph - N/A   Overcast
2:15 AM 25.2 °F 11.6 °F 15.3 °F 66% 29.90 in 10.0 mi West 18.4 mph 25.3 mph N/A   Overcast
2:35 AM 25.3 °F 13.1 °F 16.3 °F 69% 29.91 in 10.0 mi West 15.0 mph 23.0 mph N/A   Overcast
2:55 AM 25.5 °F 12.9 °F 16.7 °F 69% 29.91 in 10.0 mi West 16.1 mph 21.9 mph N/A   Overcast
3:15 AM 25.5 °F 12.4 °F 17.1 °F 70% 29.90 in 10.0 mi West 17.3 mph 24.2 mph N/A   Overcast
3:35 AM 25.5 °F 11.3 °F 16.2 °F 68% 29.90 in 10.0 mi West 20.7 mph 28.8 mph N/A   Overcast
3:55 AM 25.5 °F 12.0 °F 15.3 °F 65% 29.90 in 10.0 mi West 18.4 mph 28.8 mph N/A   Overcast
4:15 AM 25.5 °F 14.3 °F 14.9 °F 64% 29.90 in 10.0 mi West 12.7 mph 21.9 mph N/A   Overcast
4:35 AM 25.5 °F 12.4 °F 14.5 °F 63% 29.90 in 10.0 mi West 17.3 mph 23.0 mph N/A   Overcast
4:55 AM 25.2 °F 13.9 °F 15.3 °F 66% 29.90 in 10.0 mi West 12.7 mph 24.2 mph N/A   Mostly Cloudy
5:15 AM 24.8 °F 13.4 °F 16.5 °F 71% 29.90 in 10.0 mi WSW 12.7 mph - N/A   Scattered Clouds
5:35 AM 24.8 °F 11.9 °F 18.3 °F 76% 29.91 in 10.0 mi WSW 16.1 mph - N/A   Scattered Clouds
5:55 AM 25.2 °F 12.9 °F 19.0 °F 78% 29.91 in 10.0 mi WSW 15.0 mph 20.7 mph N/A   Overcast
6:15 AM 25.2 °F 12.0 °F 19.2 °F 78% 29.92 in 10.0 mi WSW 17.3 mph 20.7 mph N/A   Overcast
6:35 AM 25.5 °F 12.9 °F 18.3 °F 74% 29.92 in 10.0 mi WSW 16.1 mph 19.6 mph N/A   Overcast
6:55 AM 25.7 °F 12.3 °F 17.2 °F 70% 29.93 in 10.0 mi West 18.4 mph 24.2 mph N/A   Overcast
7:15 AM 25.7 °F 14.6 °F 16.9 °F 69% 29.93 in 10.0 mi West 12.7 mph - N/A   Overcast
7:55 AM 25.5 °F 11.3 °F 16.5 °F 69% 29.95 in 10.0 mi WSW 20.7 mph 26.5 mph N/A   Mostly Cloudy
8:15 AM 25.7 °F 13.1 °F 17.1 °F 70% 29.95 in 10.0 mi WSW 16.1 mph 26.5 mph N/A   Mostly Cloudy
8:35 AM 25.9 °F 13.3 °F 17.1 °F 69% 29.96 in 10.0 mi West 16.1 mph 26.5 mph N/A   Overcast
8:55 AM 26.4 °F 13.2 °F 17.8 °F 70% 29.97 in 10.0 mi West 18.4 mph - N/A   Overcast
9:15 AM 26.4 °F 14.0 °F 17.6 °F 69% 29.97 in 10.0 mi West 16.1 mph 23.0 mph N/A   Overcast
9:35 AM 26.8 °F 13.7 °F 18.0 °F 69% 29.98 in 10.0 mi WSW 18.4 mph 25.3 mph N/A   Overcast
9:55 AM 27.1 °F 13.1 °F 18.7 °F 70% 29.99 in 10.0 mi West 21.9 mph 25.3 mph N/A   Overcast
10:15 AM 27.5 °F 13.9 °F 21.4 °F 78% 30.00 in 10.0 mi West 20.7 mph - N/A   Overcast
10:35 AM 27.5 °F 13.5 °F 19.2 °F 71% 30.00 in 10.0 mi WSW 21.9 mph - N/A Snow Light Snow
10:55 AM 27.7 °F 14.8 °F 22.6 °F 81% 30.01 in 5.0 mi WSW 18.4 mph 24.2 mph N/A Snow Light Snow
11:15 AM 28.0 °F 14.6 °F 20.7 °F 74% 30.00 in 10.0 mi WSW 20.7 mph 24.2 mph N/A   Mostly Cloudy
11:35 AM 28.0 °F 15.3 °F 20.1 °F 72% 30.00 in 10.0 mi West 18.4 mph 24.2 mph N/A   Mostly Cloudy
11:55 AM 28.2 °F 14.5 °F 19.8 °F 71% 29.99 in 10.0 mi West 21.9 mph 27.6 mph N/A   Mostly Cloudy
12:15 PM 28.9 °F 16.1 °F 21.0 °F 72% 29.98 in 10.0 mi West 19.6 mph 24.2 mph N/A   Overcast
12:35 PM 28.4 °F 16.2 °F 20.1 °F 71% 29.99 in 10.0 mi West 17.3 mph 23.0 mph N/A   Overcast
12:55 PM 28.4 °F 16.6 °F 19.0 °F 68% 29.98 in 10.0 mi West 16.1 mph - N/A   Overcast
1:15 PM 28.4 °F 15.4 °F 19.2 °F 69% 29.98 in 10.0 mi West 19.6 mph - N/A   Overcast
1:35 PM 28.4 °F 15.4 °F 18.3 °F 66% 29.97 in 10.0 mi West 19.6 mph - N/A   Mostly Cloudy
1:55 PM 28.8 °F 16.2 °F 15.3 °F 57% 29.97 in 10.0 mi West 18.4 mph 26.5 mph N/A   Scattered Clouds
2:15 PM 28.4 °F 16.6 °F 17.4 °F 63% 29.98 in 10.0 mi WNW 16.1 mph - N/A   Mostly Cloudy
2:35 PM 28.2 °F 15.2 °F 16.3 °F 61% 29.99 in 10.0 mi WNW 19.6 mph 23.0 mph N/A   Overcast
2:55 PM 27.1 °F 13.1 °F 13.6 °F 57% 30.01 in 10.0 mi WNW 21.9 mph 25.3 mph N/A   Overcast
3:15 PM 25.3 °F 11.8 °F 14.4 °F 63% 30.02 in 10.0 mi NW 18.4 mph 26.5 mph N/A   Overcast
4:15 PM 21.4 °F 4.1 °F 11.8 °F 67% 30.08 in 10.0 mi NW 26.5 mph 29.9 mph N/A   Overcast
4:35 PM - - - N/A% 30.09 in 10.0 mi NW 23.0 mph 34.5 mph N/A   Overcast
4:55 PM 19.6 °F 2.7 °F 7.7 °F 60% 30.11 in 10.0 mi NW 23.0 mph 33.4 mph N/A   Overcast
5:15 PM 18.5 °F 2.0 °F 8.4 °F 65% 30.12 in 10.0 mi WNW 20.7 mph 28.8 mph N/A   Mostly Cloudy
5:35 PM 17.1 °F -0.3 °F 6.3 °F 63% 30.13 in 10.0 mi NW 21.9 mph 29.9 mph N/A   Scattered Clouds
5:55 PM 16.7 °F -0.3 °F 6.6 °F 65% 30.15 in 10.0 mi NW 20.7 mph 27.6 mph N/A   Clear
6:15 PM 16.2 °F -1.8 °F 5.5 °F 63% 30.16 in 10.0 mi WNW 23.0 mph 31.1 mph N/A   Clear
6:35 PM 15.6 °F -0.4 °F 5.0 °F 63% 30.18 in 10.0 mi WNW 17.3 mph 28.8 mph N/A   Clear
6:55 PM 15.3 °F -0.9 °F 5.7 °F 66% 30.18 in 10.0 mi NW 17.3 mph 21.9 mph N/A   Scattered Clouds
7:15 PM 15.4 °F -1.1 °F 5.4 °F 64% 30.19 in 10.0 mi WNW 18.4 mph 26.5 mph N/A   Scattered Clouds
7:35 PM 15.6 °F -1.8 °F 5.2 °F 63% 30.20 in 10.0 mi WNW 20.7 mph 31.1 mph N/A   Mostly Cloudy
8:15 PM 14.9 °F -3.9 °F 6.3 °F 69% 30.22 in 10.0 mi WNW 24.2 mph 32.2 mph N/A   Overcast
8:35 PM 14.0 °F -5.1 °F 2.7 °F 61% 30.24 in 10.0 mi WNW 24.2 mph 32.2 mph N/A   Mostly Cloudy
8:55 PM 13.5 °F -3.7 °F 4.6 °F 68% 30.25 in 10.0 mi NW 18.4 mph 25.3 mph N/A   Mostly Cloudy
9:35 PM 11.1 °F -8.1 °F 2.1 °F 67% 30.28 in 10.0 mi WNW 21.9 mph 31.1 mph N/A   Scattered Clouds
9:55 PM 10.4 °F -7.7 °F 1.2 °F 66% 30.29 in 10.0 mi NW 18.4 mph 26.5 mph N/A   Clear
10:15 PM 9.9 °F -7.9 °F -0.2 °F 64% 30.30 in 10.0 mi NW 17.3 mph 27.6 mph N/A   Clear
10:35 PM 10.0 °F -8.1 °F -0.0 °F 64% 30.31 in 10.0 mi WNW 18.4 mph 24.2 mph N/A   Clear
10:55 PM 9.5 °F -7.8 °F -1.3 °F 62% 30.32 in 10.0 mi WNW 16.1 mph 27.6 mph N/A   Scattered Clouds
11:15 PM 10.0 °F -10.0 °F 0.5 °F 65% 30.33 in 10.0 mi WNW 23.0 mph - N/A   Scattered Clouds
11:35 PM 9.5 °F -9.3 °F 6.1 °F 86% - - WNW 19.6 mph 28.8 mph N/A   Unknown
11:55 PM 9.3 °F -10.0 °F -0.2 °F 65% 30.34 in 10.0 mi WNW 20.7 mph 27.6 mph N/A   Scattered Clouds